TimeCDT,TemperatureF,Dew PointF,Humidity,Sea Level PressureIn,VisibilityMPH,Wind Direction,Wind SpeedMPH,Gust SpeedMPH,PrecipitationIn,Events,Conditions,WindDirDegrees,DateUTC
12:56 AM,27.0,17.1,66,30.23,10.0,West,3.5,-,N/A,,Clear,270,2013-04-02 05:56:00
1:56 AM,28.0,17.1,63,30.24,10.0,West,5.8,-,N/A,,Clear,270,2013-04-02 06:56:00
2:56 AM,28.0,16.0,61,30.24,10.0,WNW,8.1,-,N/A,,Clear,290,2013-04-02 07:56:00
3:56 AM,27.0,16.0,63,30.23,10.0,WNW,6.9,-,N/A,,Clear,300,2013-04-02 08:56:00
4:56 AM,26.1,17.1,69,30.25,10.0,West,6.9,-,N/A,,Clear,280,2013-04-02 09:56:00
5:56 AM,25.0,17.1,72,30.26,10.0,West,3.5,-,N/A,,Clear,260,2013-04-02 10:56:00
6:56 AM,24.1,18.0,77,30.27,10.0,West,6.9,-,N/A,,Clear,280,2013-04-02 11:56:00
7:56 AM,27.0,17.1,66,30.29,10.0,WNW,8.1,-,N/A,,Clear,290,2013-04-02 12:56:00
8:56 AM,28.9,16.0,58,30.29,10.0,WNW,8.1,-,N/A,,Clear,300,2013-04-02 13:56:00
9:56 AM,30.9,16.0,54,30.29,10.0,West,6.9,-,N/A,,Clear,260,2013-04-02 14:56:00
10:56 AM,34.0,12.9,42,30.29,10.0,WNW,9.2,-,N/A,,Clear,300,2013-04-02 15:56:00
11:56 AM,36.0,14.0,41,30.28,10.0,West,8.1,-,N/A,,Clear,280,2013-04-02 16:56:00
12:56 PM,37.9,10.9,33,30.27,10.0,WNW,11.5,-,N/A,,Clear,300,2013-04-02 17:56:00
1:56 PM,39.0,10.0,30,30.26,10.0,NW,10.4,-,N/A,,Partly Cloudy,310,2013-04-02 18:56:00
2:56 PM,39.9,12.0,32,30.26,10.0,WNW,16.1,20.7,N/A,,Partly Cloudy,300,2013-04-02 19:56:00
3:56 PM,39.9,10.9,31,30.25,10.0,NNW,4.6,-,N/A,,Clear,330,2013-04-02 20:56:00
4:56 PM,39.9,12.0,32,30.26,10.0,NNW,8.1,-,N/A,,Clear,340,2013-04-02 21:56:00
5:56 PM,39.0,10.9,32,30.28,10.0,North,13.8,20.7,N/A,,Clear,360,2013-04-02 22:56:00
6:56 PM,37.0,12.0,36,30.30,10.0,NNW,8.1,-,N/A,,Clear,340,2013-04-02 23:56:00
7:56 PM,34.0,12.0,40,30.30,10.0,NW,6.9,-,N/A,,Clear,310,2013-04-03 00:56:00
8:56 PM,32.0,12.0,44,30.32,10.0,NNW,6.9,-,N/A,,Clear,340,2013-04-03 01:56:00
9:56 PM,32.0,10.9,42,30.34,10.0,NNW,6.9,-,N/A,,Clear,330,2013-04-03 02:56:00
10:56 PM,30.9,12.0,46,30.35,10.0,NNW,4.6,-,N/A,,Clear,340,2013-04-03 03:56:00
11:56 PM,27.0,19.0,72,30.35,10.0,Calm,Calm,-,N/A,,Clear,0,2013-04-03 04:56:00